Weather History for YCIN - June, 2012

Change the Weather History Date:

Wednesday, June 6, 2012

  Actual Average Record
Temperature  
Mean Temperature 70 °F -  
Max Temperature 85 °F - - ()
Min Temperature 53 °F - - ()
Cooling Degree Days 5    
Growing Degree Days 20 (Base 50)    
Moisture  
Dew Point 41 °F    
Average Humidity 41    
Maximum Humidity 72    
Minimum Humidity 14    
Precipitation  
Precipitation 0.00 in - - ()
Sea Level Pressure  
Sea Level Pressure 29.91 in    
Wind  
Wind Speed 6 mph ()    
Max Wind Speed 10 mph    
Max Gust Speed -    
T = Trace of Precipitation, MM = Missing Value Source: Averaged Metar Reports

Daily Weather History Graph

Daily Weather History Graph

Search for Another Location

Airport or City:

Trip Planner

Search our weather history database for the weather conditions in past years. The results will help you decide how hot, cold, wet, or windy it might be!

Date:

Astronomy

Jun. 06, 2012 Rise Set
Actual Time 6:09 AM AWST 5:16 PM AWST
Civil Twilight 5:46 AM AWST 5:40 PM AWST
Nautical Twilight 5:19 AM AWST 6:07 PM AWST
Astronomical Twilight 4:52 AM AWST 6:33 PM AWST
Moon 7:17 PM AWST (6/6) 7:41 AM AWST (6/6)
Length of Visible Light 11h 53m
Length of Day
11h 06m
Waning Gibbous, 96% of the Moon is Illuminated
Jun 6
Waning Gibbous
Jun 11
Last Quarter
Jun 19
New
Jun 27
First Quarter
Jul 4
Full

Hourly Weather History & Observations

Time (AWST) Temp. Dew Point Humidity Pressure Visibility Wind Dir Wind Speed Gust Speed Precip Events Conditions
12:00 AM 64 °F 36 °F 23% 29.92 in - ESE 8.1 mph - -  
12:00 AM 64.4 °F 35.6 °F 34% 29.92 in - ESE 8.1 mph - N/A   Unknown
1:00 AM 62.6 °F 35.6 °F 37% 29.92 in - ESE 8.1 mph - N/A   Unknown
2:00 AM 59.0 °F 37.4 °F 45% 29.92 in - ESE 9.2 mph - N/A   Unknown
3:00 AM 60 °F 37 °F 30% 29.91 in - ESE 8.1 mph - -  
3:00 AM 60.8 °F 37.4 °F 42% 29.92 in - ESE 8.1 mph - N/A   Unknown
4:00 AM 60.8 °F 37.4 °F 42% 29.92 in - East 9.2 mph - N/A   Unknown
5:00 AM 57.2 °F 39.2 °F 51% 29.92 in - East 9.2 mph - N/A   Unknown
6:00 AM 59 °F 38 °F 35% 29.94 in - East 8.1 mph - -  
6:00 AM 59.0 °F 39.2 °F 48% 29.95 in - East 8.1 mph - N/A   Unknown
7:00 AM 62.6 °F 41.0 °F 45% 29.95 in - East 9.2 mph - N/A   Unknown
8:00 AM 69.8 °F 42.8 °F 38% 29.98 in - ENE 8.1 mph - N/A   Unknown
9:00 AM 75.2 °F 42.8 °F 31% 29.98 in - ENE 10.4 mph - N/A   Unknown
10:00 AM 78.8 °F 42.8 °F 28% 29.95 in - ENE 10.4 mph - N/A   Unknown
11:00 AM 80.6 °F 42.8 °F 26% 29.95 in - East 8.1 mph - N/A   Unknown
12:00 PM 84.2 °F 41.0 °F 22% 29.89 in - East 6.9 mph - N/A   Unknown
1:00 PM 82.4 °F 39.2 °F 21% 29.86 in - SSW 4.6 mph - N/A   Unknown
2:00 PM 82.4 °F 41.0 °F 23% 29.86 in - SSE 1.2 mph - N/A   Unknown
3:00 PM 82 °F 40 °F 14% 29.84 in - SE 5.8 mph - -  
3:00 PM 82.4 °F 41.0 °F 23% 29.83 in - SE 5.8 mph - N/A   Unknown
4:00 PM 80.6 °F 41.0 °F 24% 29.83 in - ESE 4.6 mph - N/A   Unknown
5:00 PM 73.4 °F 48.2 °F 41% 29.86 in - SSE 1.2 mph - N/A   Unknown
6:00 PM 64 °F 47 °F 44% 29.88 in - WNW 2.3 mph - -  
6:00 PM 64.4 °F 48.2 °F 56% 29.89 in - WNW 2.3 mph - N/A   Unknown
7:00 PM 59.0 °F 46.4 °F 63% 29.89 in - Calm Calm - N/A   Unknown
8:00 PM 57.2 °F 46.4 °F 67% 29.92 in - Calm Calm - N/A   Unknown
9:00 PM 55 °F 45 °F 61% 29.93 in - South 4.6 mph - -  
9:00 PM 55.4 °F 44.6 °F 67% 29.92 in - South 4.6 mph - N/A   Unknown
10:00 PM 55.4 °F 44.6 °F 67% 29.92 in - South 4.6 mph - N/A   Unknown
11:00 PM 53.6 °F 44.6 °F 72% 29.92 in - SSE 4.6 mph - N/A   Unknown